Sabula, IA

5:55 PM CDT on September 26, 2016 (GMT -0500)
Tri-Township

Weather History for KSFY - January, 2012

Change the Weather History Date:

Thursday, January 5, 2012

  Actual Average (KCWI) Record (KCWI)
Temperature  
Mean Temperature 38 °F -  
Max Temperature 54 °F 28 °F 53 °F (1956)
Min Temperature 23 °F 10 °F -23 °F (1959)
Degree Days  
Heating Degree Days 26    
Moisture  
Dew Point 28 °F    
Average Humidity 72    
Maximum Humidity 91    
Minimum Humidity 41    
Precipitation  
Precipitation 0.00 in - - ()
Sea Level Pressure  
Sea Level Pressure 29.88 in    
Wind  
Wind Speed 5 mph (South)    
Max Wind Speed 9 mph    
Max Gust Speed -    
Visibility 10 miles    
Events      
Averages and records for this station are not official NWS values.
T = Trace of Precipitation, MM = Missing Value Source: NWS Daily Summary

Daily Weather History Graph

Daily Weather History Graph

Search for Another Location

Airport or City:

Trip Planner

Search our weather history database for the weather conditions in past years. The results will help you decide how hot, cold, wet, or windy it might be!

Date:

Astronomy

Jan. 05, 2012 Rise Set
Actual Time 7:28 AM CST 4:42 PM CST
Civil Twilight 6:57 AM CST 5:14 PM CST
Nautical Twilight 6:22 AM CST 5:49 PM CST
Astronomical Twilight 5:48 AM CST 6:23 PM CST
Moon 1:46 PM CST (1/5) 4:14 AM CST (1/5)
Length of Visible Light 10h 17m
Length of Day
9h 14m
Waxing Gibbous, 88% of the Moon is Illuminated
Jan 5
Waxing Gibbous
Jan 9
Full
Jan 16
Last Quarter
Jan 23
New
Jan 30
First Quarter

Hourly Weather History & Observations

Time (CST) Temp. Windchill Dew Point Humidity Pressure Visibility Wind Dir Wind Speed Gust Speed Precip Events Conditions
12:15 AM 27.0 °F 19.5 °F 23.0 °F 85% 30.01 in 10.0 mi SSE 6.9 mph - N/A   Clear
12:35 AM 26.2 °F 18.6 °F 22.8 °F 87% 30.01 in 10.0 mi SSE 6.9 mph - N/A   Clear
12:55 AM 26.4 °F 18.0 °F 23.0 °F 87% 30.00 in 10.0 mi SSE 8.1 mph - N/A   Clear
1:15 AM 27.3 °F 20.9 °F 23.4 °F 85% 29.99 in 10.0 mi SSE 5.8 mph - N/A   Clear
1:35 AM 27.1 °F 19.7 °F 23.4 °F 86% 29.99 in 10.0 mi SSE 6.9 mph - N/A   Clear
1:55 AM 27.5 °F 22.2 °F 23.7 °F 86% 30.00 in 10.0 mi SSE 4.6 mph - N/A   Clear
2:15 AM 27.3 °F 22.0 °F 23.7 °F 86% 30.00 in 10.0 mi SSE 4.6 mph - N/A   Clear
2:35 AM 27.3 °F 20.9 °F 23.7 °F 86% 29.99 in 10.0 mi SSE 5.8 mph - N/A   Clear
2:55 AM 27.0 °F - 23.5 °F 87% 30.00 in 10.0 mi Calm Calm - N/A   Clear
3:15 AM 27.7 °F - 24.1 °F 86% 29.99 in 10.0 mi Calm Calm - N/A   Clear
3:35 AM 27.5 °F - 24.3 °F 88% 29.99 in 10.0 mi Calm Calm - N/A   Clear
3:55 AM 25.9 °F 21.7 °F 22.6 °F 88% 29.97 in 10.0 mi SSE 3.5 mph - N/A   Clear
4:15 AM 24.3 °F 19.9 °F 21.9 °F 91% 29.98 in 10.0 mi South 3.5 mph - N/A   Clear
4:35 AM 27.1 °F 23.2 °F 23.9 °F 88% 29.98 in 10.0 mi South 3.5 mph - N/A   Clear
4:55 AM 25.7 °F 20.1 °F 23.0 °F 89% 29.97 in 10.0 mi South 4.6 mph - N/A   Clear
5:35 AM 25.5 °F 21.3 °F 22.8 °F 89% 29.96 in 10.0 mi SSE 3.5 mph - N/A   Clear
5:55 AM 24.4 °F - 22.3 °F 91% 29.96 in 10.0 mi Calm Calm - N/A   Clear
6:15 AM 23.9 °F 19.5 °F 21.6 °F 91% 29.96 in 10.0 mi SSE 3.5 mph - N/A   Clear
6:35 AM 24.3 °F 18.4 °F 21.9 °F 91% 29.96 in 10.0 mi SSE 4.6 mph - N/A   Clear
6:55 AM 24.3 °F 18.4 °F 21.9 °F 91% 29.96 in 10.0 mi South 4.6 mph - N/A   Clear
7:15 AM 23.7 °F 17.8 °F 21.4 °F 91% 29.95 in 10.0 mi SSE 4.6 mph - N/A   Clear
7:35 AM 24.4 °F 18.6 °F 22.1 °F 91% 29.94 in 10.0 mi SSE 4.6 mph - N/A   Clear
7:55 AM 24.6 °F 18.8 °F 22.1 °F 90% 29.94 in 10.0 mi South 4.6 mph - N/A   Clear
8:15 AM 25.5 °F 21.3 °F 23.2 °F 91% 29.94 in 10.0 mi South 3.5 mph - N/A   Clear
8:55 AM 31.5 °F 26.8 °F 27.7 °F 86% 29.93 in 10.0 mi South 4.6 mph - N/A   Clear
9:15 AM 32.4 °F 29.1 °F 28.9 °F 87% 29.94 in 10.0 mi SW 3.5 mph - N/A   Clear
9:35 AM 34.3 °F 30.2 °F 27.9 °F 77% 29.94 in 10.0 mi SW 4.6 mph - N/A   Clear
9:55 AM 36.0 °F 32.1 °F 28.6 °F 75% 29.94 in 10.0 mi WSW 4.6 mph - N/A   Clear
10:15 AM 36.9 °F 34.3 °F 28.6 °F 72% 29.94 in 10.0 mi West 3.5 mph - N/A   Clear
10:35 AM 38.7 °F 36.3 °F 28.9 °F 68% 29.93 in 10.0 mi WSW 3.5 mph - N/A   Clear
11:15 AM 41.5 °F 38.6 °F 30.2 °F 64% 29.91 in 10.0 mi South 4.6 mph - N/A   Clear
11:55 AM 45.7 °F 42.0 °F 31.3 °F 57% 29.88 in 10.0 mi SSW 6.9 mph - N/A   Clear
12:15 PM 46.6 °F - 31.6 °F 56% 29.87 in 10.0 mi SSW 6.9 mph - N/A   Clear
12:35 PM 48.4 °F - 31.8 °F 53% 29.85 in 10.0 mi SSW 9.2 mph - N/A   Clear
12:55 PM 49.8 °F - 31.6 °F 50% 29.84 in 10.0 mi South 6.9 mph - N/A   Clear
1:15 PM 50.9 °F - 31.8 °F 48% 29.83 in 10.0 mi SSW 6.9 mph - N/A   Clear
1:35 PM 52.3 °F - 31.6 °F 45% 29.82 in 10.0 mi SSW 6.9 mph - N/A   Clear
1:55 PM 53.1 °F - 31.3 °F 43% 29.81 in 10.0 mi SSW 6.9 mph - N/A   Clear
2:15 PM 53.2 °F - 31.3 °F 43% 29.79 in 10.0 mi SSW 6.9 mph - N/A   Clear
2:35 PM 54.5 °F - 31.1 °F 41% 29.79 in 10.0 mi SW 6.9 mph - N/A   Clear
2:55 PM 54.3 °F - 30.7 °F 41% 29.79 in 10.0 mi SW 9.2 mph - N/A   Clear
3:15 PM 54.5 °F - 31.1 °F 41% 29.79 in 10.0 mi SSW 3.5 mph - N/A   Clear
3:35 PM 54.0 °F - 30.9 °F 41% 29.79 in 10.0 mi SW 4.6 mph - N/A   Clear
3:55 PM 52.0 °F - 31.8 °F 46% 29.79 in 10.0 mi SSW 5.8 mph - N/A   Clear
4:15 PM 50.2 °F - 31.6 °F 49% 29.78 in 10.0 mi SSW 5.8 mph - N/A   Clear
4:35 PM 46.8 °F - 31.8 °F 56% 29.77 in 10.0 mi South 5.8 mph - N/A   Clear
4:55 PM 45.7 °F 42.0 °F 31.6 °F 58% 29.77 in 10.0 mi South 6.9 mph - N/A   Clear
5:15 PM 43.9 °F 39.9 °F 31.1 °F 61% 29.76 in 10.0 mi South 6.9 mph - N/A   Clear
5:35 PM 44.4 °F 39.5 °F 31.5 °F 60% 29.76 in 10.0 mi South 9.2 mph - N/A   Clear
5:55 PM 43.5 °F 39.4 °F 31.1 °F 62% 29.76 in 10.0 mi South 6.9 mph - N/A   Clear
6:15 PM 43.2 °F 37.9 °F 30.9 °F 62% 29.75 in 10.0 mi South 9.2 mph - N/A   Clear
6:35 PM 40.5 °F 35.8 °F 30.9 °F 69% 29.75 in 10.0 mi South 6.9 mph - N/A   Clear
6:55 PM 41.0 °F 36.4 °F 31.1 °F 68% 29.75 in 10.0 mi South 6.9 mph - N/A   Clear
7:15 PM 39.2 °F 34.2 °F 30.9 °F 72% 29.74 in 10.0 mi SSE 6.9 mph - N/A   Clear
7:35 PM 38.1 °F 31.7 °F 31.6 °F 77% 29.74 in 10.0 mi SSE 9.2 mph - N/A   Clear
7:55 PM 38.1 °F 32.9 °F 31.6 °F 77% 29.74 in 10.0 mi South 6.9 mph - N/A   Clear
8:15 PM 39.6 °F 37.4 °F 31.8 °F 74% 29.74 in 10.0 mi South 3.5 mph - N/A   Clear
8:35 PM 39.0 °F 35.7 °F 31.1 °F 73% 29.74 in 10.0 mi South 4.6 mph - N/A   Clear
8:55 PM 39.0 °F 33.4 °F 31.1 °F 73% 29.73 in 10.0 mi South 8.1 mph - N/A   Clear
9:15 PM 42.1 °F 37.1 °F 31.1 °F 65% 29.72 in 10.0 mi South 8.1 mph - N/A   Clear
9:35 PM 42.1 °F 37.7 °F 30.7 °F 64% 29.72 in 10.0 mi South 6.9 mph - N/A   Clear
9:55 PM 43.3 °F 39.9 °F 30.6 °F 61% 29.73 in 10.0 mi South 5.8 mph - N/A   Clear
10:15 PM 42.1 °F 37.7 °F 30.2 °F 63% 29.72 in 10.0 mi South 6.9 mph - N/A   Clear
10:35 PM 42.1 °F 38.4 °F 30.2 °F 63% 29.72 in 10.0 mi South 5.8 mph - N/A   Clear
10:55 PM 43.9 °F 41.3 °F 30.2 °F 59% 29.72 in 10.0 mi South 4.6 mph - N/A   Clear
11:35 PM 40.3 °F 34.9 °F 30.6 °F 68% 29.71 in 10.0 mi South 8.1 mph - N/A   Clear
11:55 PM 39.9 °F 36.7 °F 30.7 °F 70% 29.70 in 10.0 mi South 4.6 mph - N/A   Clear